Regional Weather Roundup
Issued by NWS State College, PA

Home | Current Version | Previous Version | Graphics & Text | Print | Product List | Glossary Off
Versions: 1 2 3 4 5 6 7 8 9 10 11 12 13 14 15 16 17 18 19 20 21 22 23 24 25 26 27 28 29 30 31 32 33 34 35 36 37 38 39 40 41 42 43 44 45 46 47 48 49 50

000
ASUS41 KCTP 231210
RWRCTP

REGIONAL WEATHER ROUNDUP
NATIONAL WEATHER SERVICE STATE COLLEGE PA
800 AM EDT TUE SEP 23 2014

Note: "fair" indicates few or no clouds below 12,000 feet with no
significant weather and/or obstructions to visibility.

* = STATION THAT DOES NOT REPORT PRECIPITATION /E.G. RAIN...SNOW...ETC/
    THUNDER OR FOG.

PAZ002>004-007>009-013>016-020>023-029>032-231300-
WESTERN PENNSYLVANIA

CITY           SKY/WX    TMP DP  RH WIND       PRES   REMARKS
ERIE           PTCLDY    47  42  83 S7        30.32R
MEADVILLE      CLEAR     42  40  92 S5        30.34R
FRANKLIN*      CLEAR     37  36  93 S3        30.35R
NEW CASTLE     FOG       38  38 100 CALM      30.37R VSB<1/4
BEAVER COUNTY  CLEAR     43  41  93 CALM      30.35R
BUTLER*        CLEAR     37  36  93 CALM      30.37R
PITTSBURGH INT PTCLDY    39  38  96 CALM      30.35R
PITTSBURGH     CLEAR     42  40  92 SE5       30.34R FOG
INDIANA*       CLEAR     39  37  93 CALM      30.38R
LATROBE        CLEAR     39  39 100 CALM      30.36R
WASHINGTON CO* CLEAR     36  34  93 CALM      30.37R
$$

PAZ004>006-010>012-017>019-024>028-033>037-041-042-045-046-049>053-231300-
CENTRAL PENNSYLVANIA

CITY           SKY/WX    TMP DP  RH WIND       PRES   REMARKS
BRADFORD       CLEAR     36  35  96 CALM      30.31R
DUBOIS         CLEAR     39  39 100 CALM      30.33R FOG
CLEARFIELD     MOSUNNY   38  37  97 CALM      30.34R FOG
JOHNSTOWN      CLEAR     41  38  89 W3        30.33R
ALTOONA        SUNNY     42  40  92 CALM      30.34R
STATE COLLEGE  SUNNY     43  41  93 CALM      30.33R
WILLIAMSPORT   CLOUDY    43  40  89 N3        30.33R
SELINSGROVE    PTSUNNY   43  41  93 CALM      30.34R
FT INDIANTOWN  SUNNY     44  44  99 CALM      30.33R
CAPITAL CITY   SUNNY     49  43  80 W3        30.33R
HARRISBURG     SUNNY     51  44  77 CALM      30.32R
YORK           SUNNY     47  43  86 CALM      30.33R
$$

PAZ038>040-043-044-047-048-054-055-060>062-067>071-231300-
EASTERN PENNSYLVANIA

CITY           SKY/WX    TMP DP  RH WIND       PRES   REMARKS
SCRANTON       SUNNY     44  40  85 CALM      30.31R
MOUNT POCONO   SUNNY     45  39  79 NW3       30.29R
ALLENTOWN      SUNNY     46  41  82 SW3       30.31R
QUAKERTOWN*      N/A     50  41  71 N6        30.31S
READING        SUNNY     48  41  76 CALM      30.31R
LANCASTER      SUNNY     47  43  86 W5        30.32R
COATESVILLE    SUNNY     50  43  76 CALM      30.32R
POTTSTOWN      SUNNY     48  43  82 NW3       30.32R
BLUE BELL      SUNNY     50  43  76 CALM      30.30R
DOYLESTOWN     SUNNY     47  40  76 N5        30.29R
WILLOW GROVE   NOT AVBL
NORTH PHILA    SUNNY     53  41  63 N6        30.32R
PHILADELPHIA   MOSUNNY   52  41  66 NW5       30.32R
$$


USA.gov is the U.S. government's official web portal to all federal, state and local government web resources and services.